Muskegon, MI

8:23 AM EDT on June 27, 2017 (GMT -0400)
Muskegon County

Weather History for KMKG - September, 2013

Change the Weather History Date:

Thursday, September 5, 2013

  Actual Average Record
Temperature  
Mean Temperature 64 °F 66 °F  
Max Temperature 74 °F 75 °F 92 °F (1948)
Min Temperature 53 °F 57 °F 37 °F (1900)
Degree Days  
Heating Degree Days 1 2  
Month to date heating degree days 2 10  
Since 1 July heating degree days 37 40  
Cooling Degree Days 0 3  
Month to date cooling degree days 14 17  
Year to date cooling degree days 553 524  
Growing Degree Days 13 (Base 50)    
Moisture  
Dew Point 47 °F    
Average Humidity 56    
Maximum Humidity 83    
Minimum Humidity 29    
Precipitation  
Precipitation 0.00 in 0.13 in 2.40 in (1916)
Month to date precipitation 0.00 0.60  
Year to date precipitation 31.25 21.18  
Snow  
Snow 0.00 in 0.00 in - ()
Month to date snowfall 0.0 0.0  
Since 1 July snowfall 0.0 0.0  
Since 1 September snowfall 0.0 0.0  
Snow Depth 0.00 in    
Sea Level Pressure  
Sea Level Pressure 30.24 in    
Wind  
Wind Speed 7 mph (NNE)    
Max Wind Speed 14 mph    
Max Gust Speed 17 mph    
Visibility 10 miles    
Events      
T = Trace of Precipitation, MM = Missing Value Source: NWS Daily Summary

Daily Weather History Graph

Daily Weather History Graph

Search for Another Location

Airport or City:

Trip Planner

Search our weather history database for the weather conditions in past years. The results will help you decide how hot, cold, wet, or windy it might be!

Date:

Astronomy

Sep. 05, 2013 Rise Set
Actual Time 7:13 AM EDT 8:12 PM EDT
Civil Twilight 6:44 AM EDT 8:41 PM EDT
Nautical Twilight 6:10 AM EDT 9:15 PM EDT
Astronomical Twilight 5:33 AM EDT 9:51 PM EDT
Moon 7:26 AM EDT (9/5) 8:01 PM EDT (9/5)
Length of Visible Light 13h 56m
Length of Day
12h 58m
New Moon, 0% of the Moon is Illuminated
Sep 5
New Moon
Sep 12
First Quarter
Sep 19
Full
Sep 26
Last Quarter
Oct 4
New

Hourly Weather History & Observations

Time (EDT) Temp. Dew Point Humidity Pressure Visibility Wind Dir Wind Speed Gust Speed Precip Events Conditions
12:55 AM 64.0 °F 55.9 °F 75% 30.15 in 10.0 mi NE 5.8 mph - N/A   Mostly Cloudy
1:55 AM 63.0 °F 54.0 °F 72% 30.15 in 10.0 mi NE 8.1 mph - N/A   Overcast
2:55 AM 60.1 °F 52.0 °F 75% 30.17 in 10.0 mi NE 6.9 mph - N/A   Partly Cloudy
3:55 AM 57.9 °F 50.0 °F 75% 30.18 in 10.0 mi NNE 5.8 mph - N/A   Partly Cloudy
4:55 AM 55.9 °F 50.0 °F 80% 30.20 in 10.0 mi North 3.5 mph - N/A   Clear
5:55 AM 55.9 °F 48.0 °F 75% 30.22 in 10.0 mi North 6.9 mph - N/A   Clear
6:55 AM 54.0 °F 46.0 °F 75% 30.25 in 10.0 mi NE 6.9 mph - N/A   Scattered Clouds
7:55 AM 53.1 °F 46.0 °F 77% 30.27 in 10.0 mi ENE 5.8 mph - N/A   Scattered Clouds
8:55 AM 57.9 °F 44.1 °F 60% 30.29 in 10.0 mi NE 9.2 mph - N/A   Scattered Clouds
9:55 AM 60.1 °F 44.1 °F 55% 30.30 in 10.0 mi NE 10.4 mph - N/A   Scattered Clouds
10:55 AM 63.0 °F 44.1 °F 50% 30.30 in 10.0 mi NE 8.1 mph - N/A   Scattered Clouds
11:55 AM 64.9 °F 43.0 °F 45% 30.29 in 10.0 mi NNE 8.1 mph - N/A   Scattered Clouds
12:55 PM 68.0 °F 42.1 °F 39% 30.29 in 10.0 mi NNE 4.6 mph - N/A   Partly Cloudy
1:55 PM 72.0 °F 39.0 °F 30% 30.28 in 10.0 mi North 8.1 mph - N/A   Partly Cloudy
2:55 PM 73.0 °F 39.9 °F 30% 30.26 in 10.0 mi Variable 6.9 mph - N/A   Partly Cloudy
3:55 PM 72.0 °F 46.9 °F 41% 30.25 in 10.0 mi WNW 11.5 mph - N/A   Partly Cloudy
4:55 PM 70.0 °F 46.9 °F 44% 30.25 in 10.0 mi NW 10.4 mph - N/A   Clear
5:55 PM 70.0 °F 46.0 °F 42% 30.24 in 10.0 mi West 9.2 mph - N/A   Clear
6:55 PM 68.0 °F 48.0 °F 49% 30.24 in 10.0 mi West 8.1 mph - N/A   Clear
7:55 PM 64.9 °F 48.9 °F 56% 30.24 in 10.0 mi NW 5.8 mph - N/A   Clear
8:55 PM 62.1 °F 50.0 °F 65% 30.25 in 10.0 mi North 5.8 mph - N/A   Partly Cloudy
9:55 PM 60.1 °F 48.0 °F 64% 30.25 in 10.0 mi North 5.8 mph - N/A   Partly Cloudy
10:55 PM 59.0 °F 48.0 °F 67% 30.26 in 10.0 mi NNE 3.5 mph - N/A   Clear
11:55 PM 57.0 °F 48.0 °F 72% 30.25 in 10.0 mi Calm Calm - N/A   Clear